Location: Unspecified
(54.3232°N, 10.1392°E)
Time: 21:50:53
(UTC+01:00)

Envisat - Visible Passes

Search period start: 03 December 2023 00:00
Search period end: 13 December 2023 00:00
Orbit: 762 x 764 km, 98.3° (Epoch: 03 December)

Date Brightness Start Highest point End Pass type
(mag) Time Alt. Az. Time Alt. Az. Time Alt. Az.
03 Dec 5.6 03:51:53 10° NNE 03:52:30 13° NNE 03:52:30 13° NNE visible
03 Dec 4.9 05:31:22 10° N 05:32:39 16° N 05:32:39 16° N visible
04 Dec 5.0 04:53:46 10° N 04:54:53 16° N 04:54:53 16° N visible
04 Dec 5.0 06:34:40 10° NNW 06:35:02 11° NNW 06:35:02 11° NNW visible
05 Dec 5.4 04:16:22 10° NNE 04:17:06 14° NNE 04:17:06 14° NNE visible
05 Dec 4.9 05:56:15 10° N 05:57:15 14° NNW 05:57:15 14° NNW visible
06 Dec 5.8 03:39:12 10° NNE 03:39:20 11° NNE 03:39:20 11° NNE visible
06 Dec 5.0 05:18:28 10° N 05:19:29 15° N 05:19:29 15° N visible
06 Dec 5.9 16:43:18 10° WSW 16:45:20 12° W 16:47:23 10° WNW visible
07 Dec 5.3 04:40:56 10° N 04:41:43 14° N 04:41:43 14° N visible
07 Dec 5.0 06:21:23 10° NNW 06:21:53 11° NNW 06:21:53 11° NNW visible
08 Dec 5.6 04:03:37 10° NNE 04:03:57 12° NNE 04:03:57 12° NNE visible
08 Dec 5.0 05:43:17 10° N 05:44:06 14° N 05:44:06 14° N visible
09 Dec 5.2 05:05:36 10° N 05:06:21 14° N 05:06:21 14° N visible
10 Dec 5.5 04:28:08 10° NNE 04:28:35 13° NNE 04:28:35 13° NNE visible
10 Dec 5.1 06:08:16 10° NNW 06:08:44 12° NNW 06:08:44 12° NNW visible
11 Dec 5.1 05:30:21 10° N 05:30:59 13° N 05:30:59 13° N visible
12 Dec 5.3 04:52:44 10° N 04:53:14 13° N 04:53:14 13° N visible
